Location: Clarion
(42.7316°N, 93.7330°W)
Time: 21:15:48
(UTC+00:00)

USA 32 - Pass Details

Date: 22 April 2026
Orbit: 775 x 779 km, 85.0° (Epoch: 12 May)

Event Time Altitude Azimuth Distance (km) Brightness Sun altitude
Rises 01:53:37 0° 175° (S) 3,245 6.9 -9.2°
Reaches altitude 10° 01:55:58 10° 173° (S) 2,322 6.2 -9.6°
Maximum altitude 02:01:07 67° 91° (E) 845 4.0 -10.5°
Drops below altitude 10° 02:06:19 10° 10° (N) 2,340 6.8 -11.3°
Sets 02:08:42 0° 8° (N) 3,272 7.6 -11.7°
